Location: Hains Lake
(37.8540°N, 99.8578°W)
Time: 19:20:18
(UTC+00:00)

Vanguard 1 - Pass Details

Date: 26 April 2021
Orbit: 649 x 3834 km, 34.2° (Epoch: 04 May)

Event Time Altitude Azimuth Distance (km) Brightness Sun altitude
Rises 03:27:49 0° 281° (W) 7,727 15.7 -22.1°
Reaches altitude 10° 03:35:31 10° 267° (W) 6,904 14.9 -23.2°
Maximum altitude 03:48:59 19° 231° (SW) 6,033 14.1 -25.2°
Drops below altitude 10° 04:01:26 10° 194° (SSW) 6,214 13.8 -26.9°
Enters shadow 04:04:43 - 186° (S) 6,440 13.9 -27.4°
